Weather Roundup
Issued by NWS

Home | Current Version | Previous Version | Graphics & Text | Print | Product List | Glossary Off
Versions: 1 2 3 4 5 6 7 8 9 10 11 12 13 14 15 16 17 18 19 20 21 22 23 24 25 26 27 28 29 30 31 32 33 34 35 36 37 38 39 40 41 42 43 44 45 46 47 48 49 50

710
NZUS93 KARX 161810
HRRWXR

CURRENT HOURLY OBSERVATIONS ACROSS
MUCH OF THE UPPER MISSISSIPPI VALLEY
NATIONAL WEATHER SERVICE LA CROSSE WI
1200 PM CST MON JAN 16 2017


...SOUTHEAST MINNESOTA...


CITY           SKY/WX    TMP DP  RH WIND       PRES   REMARKS
ROCHESTER      CLOUDY    30  27  88 NE8       30.08F WCI  22
ROCHESTER/MAYO CLOUDY    30  26  83 NE7       30.09F WCI  23
WINONA         CLOUDY    28  21  74 CALM      30.15F
AUSTIN         CLOUDY    32  28  86 E10       30.05F FOG     WCI  24
ALBERT LEA     CLOUDY    32  30  93 E7        30.05F FOG     WCI  26
DODGE CENTER   CLOUDY    28  25  86 CALM      30.07F
PRESTON        CLOUDY    29  27  92 E7        30.07F FOG     WCI  22
OWATONNA       CLOUDY    28  25  86 E7        30.08F WCI  21
FARIBAULT        N/A     28  25  86 N5        30.09F WCI  23
$$

...ELSEWHERE IN MINNESOTA...


CITY           SKY/WX    TMP DP  RH WIND       PRES   REMARKS
MINNEAPOLIS    CLOUDY    27  17  66 E6        30.14F WCI  20
INTNL FALLS    SUNNY     25  14  63 NW3       30.06F
DULUTH         SUNNY     30  21  69 NW6       30.08F WCI  24
RED WING       CLOUDY    23  16  74 CALM      30.13F
REDWOOD FALLS  CLOUDY    28  22  78 E3        30.08F
MANKATO        CLOUDY    30  26  85 NE6       30.08F WCI  24
WORTHINGTON    CLOUDY    29  26  89 NE9       30.04F WCI  20
FAIRMONT       CLOUDY    30  27  88 N7        30.05F FOG     WCI  23
$$

...SOUTHWEST WISCONSIN...


CITY           SKY/WX    TMP DP  RH WIND       PRES   REMARKS
PRAIRIE DU CHI MIX PCPN  32  31  96 E3        30.10F
BOSCOBEL       MIX PCPN  32  30  92 NE7       30.12F FOG     WCI  26
LONE ROCK      FRZ RAIN  32  29  88 NE7       30.14F FOG     WCI  26
PLATTEVILLE    CLOUDY    32  32 100 E12       30.09F WCI  23
FORT MC COY    CLOUDY    31  25  78 E7        30.15F WCI  24
CAMP DOUGLAS   CLOUDY    30  23  74 E5        30.15F WCI  25
MAUSTON-NEW LI DRIZZLE   31  25  80 CALM      30.15F
VIROQUA        CLOUDY    31  30  95 E9        30.10F WCI  23
WIS DELLS      MIX PCPN  31  27  87 E6        30.14F WCI  25
$$

...ELSEWHERE IN WISCONSIN...


CITY           SKY/WX    TMP DP  RH WIND       PRES   REMARKS
MILWAUKEE      LGT RAIN  35  31  85 SE6       30.19F FOG     WCI  30
MADISON        FRZ RAIN  32  29  88 E7        30.15F FOG     WCI  26
GREEN BAY      CLOUDY    29  22  75 CALM      30.22F
EAU CLAIRE     CLOUDY    23  15  71 NE3       30.16F HAZE
BLACK RVR FLS  CLOUDY    25  16  69 CALM      30.16F
MEDFORD        CLOUDY    25  15  67 CALM      30.14F
WAUSAU         CLOUDY    19  11  70 CALM      30.16F HAZE
WIS RAPIDS     CLOUDY    28  20  71 E3        30.17F
MARSHFIELD     CLOUDY    21  13  71 E6        30.14F WCI  13
RICE LAKE      CLOUDY    16  11  83 CALM      30.17F
$$

...NORTHEAST IOWA...


CITY           SKY/WX    TMP DP  RH WIND       PRES   REMARKS
WATERLOO       MIX PCPN  32  31  96 E9        30.03F FOG     WCI  24
DUBUQUE        MIX PCPN  32  31  96 E8        30.08F FOG     WCI  25
DECORAH        MIX PCPN  32  30  93 E9        30.06F WCI  24
MASON CITY     MIX PCPN  31  30  96 E10       30.04F FOG     WCI  22
CHARLES CITY   CLOUDY    32  32 100 E12       30.05F FOG     WCI  23
OELWEIN        LGT RAIN  32  32 100 E10G16    30.04F WCI  24
$$

...ELSEWHERE IN IOWA...


CITY           SKY/WX    TMP DP  RH WIND       PRES   REMARKS
DES MOINES     LGT RAIN  34  32  92 E8        29.96F FOG     WCI  27
IOWA CITY      LGT RAIN  34  32  92 E9        30.06F FOG     WCI  27
FORT DODGE     CLOUDY    32  28  86 CALM      30.01F
MARSHALLTOWN   MIX PCPN  32  32 100 E13       29.99F FOG     WCI  22
CEDAR RAPIDS   LGT RAIN  32  31  96 E12       30.03F WCI  23
$$

...NORTHERN ILLINOIS...


CITY           SKY/WX    TMP DP  RH WIND       PRES   REMARKS
CHICAGO-OHARE  LGT RAIN  35  34  96 E8        30.16F VSB 1   WCI  29
CHICAGO-MIDWAY CLOUDY    35  34  96 E7        30.17F FOG     WCI  29
MOLINE         RAIN      35  33  92 E8        30.07F FOG     WCI  29
ROCKFORD       LGT RAIN  34  32  92 E7        30.15F FOG     WCI  28
PEORIA         CLOUDY    35  35 100 E9        30.08F FOG     WCI  28
$$

NOTE: "FAIR" INDICATES FEW OR NO CLOUDS BELOW 12,000 FEET WITH NO
SIGNIFICANT WEATHER AND/OR OBSTRUCTIONS TO VISIBILITY. WIND
SPEEDS ARE IN MILES-PER-HOUR.




USA.gov is the U.S. government's official web portal to all federal, state and local government web resources and services.